Вернуться в каталог

IRIDIUM 33 DEB

АктивенPO
NORAD 34529·DEBRIS·🇺🇸 United States

Запущен Sep 14, 1997 с Baikonur Cosmodrome

Loading…

Ближайшие Пролёты (ближайшие 24 часа)

TLE

СвежийSource: Space-Track

Эпоха: Sep 13, 2026, 12:22 UTC

1 34529U 97051HW  26256.51560456  .00000370  00000-0  10911-3 0  9993
2 34529  86.3583 278.2573 0005914  40.2282 319.9355 14.40931361920984

Отслеживайте IRIDIUM 33 DEB в реальном времени с AllMySat

Download on the App Store